Zurück zum Katalog

CZ-6A DEB

AktivPO
NORAD 54352·DEBRIS·🇨🇳 China

Gestartet Nov 11, 2022 von Taiyuan Satellite Launch Center

Loading…

Nächste Überflüge (nächste 24 Stunden)

TLE

AktuellSource: Space-Track

Epoche: Sep 12, 2026, 11:18 UTC

1 54352U 22151CX  26255.47103048  .00652607  00000-0  58137-2 0  9999
2 54352  99.0113  84.0173 0024951 281.6370  78.2085 15.66133190133939

Verfolge CZ-6A DEB in Echtzeit mit AllMySat

Download on the App Store